Tracking 19575 objects as of 18-Feb-2019
HD Live streaming from Space Station
objects crossing your sky now

IRIDIUM 82

Track IRIDIUM 82 now!
10-day predictions
IRIDIUM 82 is classified as:


NORAD ID: 25467
Int'l Code: 1998-051A
Perigee: 478.1 km
Apogee: 730.6 km
Inclination: 86.4 °
Period: 96.6 minutes
Semi major axis: 6975 km
RCS: 4.1187 m2 (large)
Launch date: September 8, 1998
Source: United States (US)
Launch site: AIR FORCE WESTERN TEST RANGE (AFWTR)
aabbcc
Your satellite tracking list
Your tracking list is empty




NASA's NSSDC Master Catalog

Two Line Element Set (TLE):
1 25467U 98051A   19048.62908341  .00000605  00000-0  42678-4 0  9994
2 25467  86.3984 101.9258 0181000  15.0498 345.6013 14.90245907 77723
Source of the keplerian elements: AFSPC